Time,TemperatureF,DewpointF,PressureIn,WindDirection,WindDirectionDegrees,WindSpeedMPH,WindSpeedGustMPH,Humidity,HourlyPrecipIn,Conditions,Clouds,dailyrainin,SoftwareType,DateUTC
2013-05-07 00:01:00,60.1,38.7,30.02,NE,56,5.8,0.0,45,0.00,CLR,,0.00,WeatherDisplay:10.37,2013-05-07 04:01:00,
2013-05-07 00:06:00,59.9,38.5,30.02,East,79,2.3,0.0,45,0.00,CLR,,0.00,WeatherDisplay:10.37,2013-05-07 04:06:00,
2013-05-07 00:11:00,59.7,38.3,30.02,West,264,3.5,0.0,45,0.00,CLR,,0.00,WeatherDisplay:10.37,2013-05-07 04:11:00,
2013-05-07 00:16:00,59.4,38.0,30.02,SE,134,4.6,4.6,45,0.00,CLR,,0.00,WeatherDisplay:10.37,2013-05-07 04:16:00,
2013-05-07 00:21:00,59.4,38.0,30.02,NNE,21,0.0,0.0,45,0.00,CLR,,0.00,WeatherDisplay:10.37,2013-05-07 04:21:00,
2013-05-07 00:26:00,59.2,38.4,30.02,ESE,123,0.0,0.0,46,0.00,CLR,,0.00,WeatherDisplay:10.37,2013-05-07 04:26:00,
2013-05-07 00:31:00,59.0,38.2,30.02,South,178,0.0,0.0,46,0.00,CLR,,0.00,WeatherDisplay:10.37,2013-05-07 04:31:00,
2013-05-07 00:36:00,59.0,38.2,30.02,East,88,2.3,0.0,46,0.00,CLR,,0.00,WeatherDisplay:10.37,2013-05-07 04:36:00,
2013-05-07 00:41:00,58.8,38.1,30.02,NNW,328,3.1,0.0,46,0.00,CLR,,0.00,WeatherDisplay:10.37,2013-05-07 04:41:00,
2013-05-07 00:46:00,58.8,38.1,30.02,SE,127,3.5,0.0,46,0.00,CLR,,0.00,WeatherDisplay:10.37,2013-05-07 04:46:00,
2013-05-07 00:51:00,58.8,38.6,30.02,SE,125,0.0,0.0,47,0.00,CLR,,0.00,WeatherDisplay:10.37,2013-05-07 04:51:00,
2013-05-07 00:56:00,58.6,38.5,30.02,SSE,149,2.7,0.0,47,0.00,CLR,,0.00,WeatherDisplay:10.37,2013-05-07 04:56:00,
2013-05-07 01:01:00,58.6,38.5,30.02,ESE,119,2.3,2.3,47,0.00,CLR,,0.00,WeatherDisplay:10.37,2013-05-07 05:01:00,
2013-05-07 01:06:00,58.5,38.3,29.99,ESE,113,3.5,0.0,47,0.00,CLR,,0.00,WeatherDisplay:10.37,2013-05-07 05:06:00,
2013-05-07 01:11:00,58.5,38.3,29.99,NW,307,3.1,0.0,47,0.00,CLR,,0.00,WeatherDisplay:10.37,2013-05-07 05:11:00,
2013-05-07 01:16:00,58.5,38.3,29.99,WNW,284,2.3,0.0,47,0.00,CLR,,0.00,WeatherDisplay:10.37,2013-05-07 05:16:00,
2013-05-07 01:21:00,58.3,38.7,29.99,West,273,0.0,0.0,48,0.00,CLR,,0.00,WeatherDisplay:10.37,2013-05-07 05:21:00,
2013-05-07 01:26:00,58.3,38.7,29.99,SE,132,0.0,0.0,48,0.00,CLR,,0.00,WeatherDisplay:10.37,2013-05-07 05:26:00,
2013-05-07 01:31:00,58.3,38.7,29.99,NNE,22,0.0,0.0,48,0.00,CLR,,0.00,WeatherDisplay:10.37,2013-05-07 05:31:00,
2013-05-07 01:36:00,58.5,38.8,29.99,WNW,302,2.7,0.0,48,0.00,CLR,,0.00,WeatherDisplay:10.37,2013-05-07 05:36:00,
2013-05-07 01:41:00,58.5,38.8,29.99,WNW,288,0.0,0.0,48,0.00,CLR,,0.00,WeatherDisplay:10.37,2013-05-07 05:41:00,
2013-05-07 01:46:00,58.5,38.3,29.99,North,5,3.5,0.0,47,0.00,CLR,,0.00,WeatherDisplay:10.37,2013-05-07 05:46:00,
2013-05-07 01:51:00,58.5,38.3,29.99,North,349,2.3,0.0,47,0.00,CLR,,0.00,WeatherDisplay:10.37,2013-05-07 05:51:00,
2013-05-07 01:56:00,58.5,38.3,29.99,WNW,303,3.6,0.0,47,0.00,CLR,,0.00,WeatherDisplay:10.37,2013-05-07 05:56:00,
2013-05-07 02:01:00,58.5,38.3,29.99,NNW,346,0.0,0.0,47,0.00,CLR,,0.00,WeatherDisplay:10.37,2013-05-07 06:01:00,
2013-05-07 02:06:00,58.3,38.7,29.99,SE,145,3.6,3.6,48,0.00,CLR,,0.00,WeatherDisplay:10.37,2013-05-07 06:06:00,
2013-05-07 02:11:00,58.5,38.8,29.99,NNE,15,3.5,0.0,48,0.00,CLR,,0.00,WeatherDisplay:10.37,2013-05-07 06:11:00,
2013-05-07 02:16:00,58.6,38.5,29.99,SSE,167,2.3,0.0,47,0.00,CLR,,0.00,WeatherDisplay:10.37,2013-05-07 06:16:00,
2013-05-07 02:21:00,58.5,38.8,29.99,NE,35,3.5,0.0,48,0.00,CLR,,0.00,WeatherDisplay:10.37,2013-05-07 06:21:00,
2013-05-07 02:26:00,58.5,38.8,29.99,NNW,338,3.5,3.5,48,0.00,CLR,,0.00,WeatherDisplay:10.37,2013-05-07 06:26:00,
2013-05-07 02:31:00,58.5,38.8,29.99,West,277,2.3,0.0,48,0.00,CLR,,0.00,WeatherDisplay:10.37,2013-05-07 06:31:00,
2013-05-07 02:36:00,58.5,39.4,29.99,NE,49,0.0,0.0,49,0.00,CLR,,0.00,WeatherDisplay:10.37,2013-05-07 06:36:00,
2013-05-07 02:41:00,58.5,39.4,29.99,NE,54,3.5,0.0,49,0.00,CLR,,0.00,WeatherDisplay:10.37,2013-05-07 06:41:00,
2013-05-07 02:46:00,58.5,39.9,29.99,NNE,22,3.5,0.0,50,0.00,CLR,,0.00,WeatherDisplay:10.37,2013-05-07 06:46:00,
2013-05-07 02:51:00,58.3,39.7,29.99,WNW,289,3.5,3.5,50,0.00,CLR,,0.00,WeatherDisplay:10.37,2013-05-07 06:51:00,
2013-05-07 02:56:00,58.3,40.2,29.99,SE,137,3.6,0.0,51,0.00,CLR,,0.00,WeatherDisplay:10.37,2013-05-07 06:56:00,
2013-05-07 03:01:00,58.3,40.2,29.99,NE,44,3.5,0.0,51,0.00,CLR,,0.00,WeatherDisplay:10.37,2013-05-07 07:01:00,
2013-05-07 03:06:00,58.3,40.2,29.96,South,172,2.3,0.0,51,0.00,CLR,,0.00,WeatherDisplay:10.37,2013-05-07 07:06:00,
2013-05-07 03:11:00,58.3,40.7,29.96,North,349,3.5,0.0,52,0.00,CLR,,0.00,WeatherDisplay:10.37,2013-05-07 07:11:00,
2013-05-07 03:16:00,58.1,41.0,29.96,NE,36,3.5,0.0,53,0.00,CLR,,0.00,WeatherDisplay:10.37,2013-05-07 07:16:00,
2013-05-07 03:21:00,57.9,41.4,29.96,WNW,290,0.0,0.0,54,0.00,CLR,,0.00,WeatherDisplay:10.37,2013-05-07 07:21:00,
2013-05-07 03:26:00,57.6,41.5,29.96,North,8,3.5,0.0,55,0.00,CLR,,0.00,WeatherDisplay:10.37,2013-05-07 07:26:00,
2013-05-07 03:31:00,57.6,41.5,29.96,SE,132,0.0,0.0,55,0.00,CLR,,0.00,WeatherDisplay:10.37,2013-05-07 07:31:00,
2013-05-07 03:36:00,57.6,41.5,29.96,NW,306,0.0,0.0,55,0.00,CLR,,0.00,WeatherDisplay:10.37,2013-05-07 07:36:00,
2013-05-07 03:41:00,57.9,41.8,29.96,NE,55,3.5,0.0,55,0.00,CLR,,0.00,WeatherDisplay:10.37,2013-05-07 07:41:00,
2013-05-07 03:46:00,57.9,41.8,29.96,North,353,5.8,0.0,55,0.00,CLR,,0.00,WeatherDisplay:10.37,2013-05-07 07:46:00,
2013-05-07 03:51:00,58.1,41.5,29.96,North,4,3.5,3.5,54,0.00,CLR,,0.00,WeatherDisplay:10.37,2013-05-07 07:51:00,
2013-05-07 03:56:00,57.9,41.4,29.96,North,353,3.5,0.0,54,0.00,CLR,,0.00,WeatherDisplay:10.37,2013-05-07 07:56:00,
2013-05-07 04:01:00,57.9,41.8,29.96,North,0,3.5,0.0,55,0.00,CLR,,0.00,WeatherDisplay:10.37,2013-05-07 08:01:00,
2013-05-07 04:06:00,57.7,41.7,29.96,North,9,2.3,0.0,55,0.00,CLR,,0.00,WeatherDisplay:10.37,2013-05-07 08:06:00,
2013-05-07 04:11:00,57.7,41.7,29.96,North,350,2.3,0.0,55,0.00,CLR,,0.00,WeatherDisplay:10.37,2013-05-07 08:11:00,
2013-05-07 04:16:00,57.7,41.7,29.96,NNW,346,0.0,0.0,55,0.00,CLR,,0.00,WeatherDisplay:10.37,2013-05-07 08:16:00,
2013-05-07 04:21:00,57.7,41.7,29.96,NNE,26,0.0,0.0,55,0.00,CLR,,0.00,WeatherDisplay:10.37,2013-05-07 08:21:00,
2013-05-07 04:26:00,57.7,41.7,29.96,NW,313,2.3,0.0,55,0.00,CLR,,0.00,WeatherDisplay:10.37,2013-05-07 08:26:00,
2013-05-07 04:31:00,57.9,41.8,29.96,NE,52,0.0,0.0,55,0.00,CLR,,0.00,WeatherDisplay:10.37,2013-05-07 08:31:00,
2013-05-07 04:36:00,57.9,41.8,29.96,East,79,3.5,3.5,55,0.00,CLR,,0.00,WeatherDisplay:10.37,2013-05-07 08:36:00,
2013-05-07 04:41:00,57.9,41.8,29.96,NW,314,2.3,0.0,55,0.00,CLR,,0.00,WeatherDisplay:10.37,2013-05-07 08:41:00,
2013-05-07 04:46:00,57.7,41.7,29.96,East,84,2.3,0.0,55,0.00,CLR,,0.00,WeatherDisplay:10.37,2013-05-07 08:46:00,
2013-05-07 04:51:00,57.7,41.7,29.96,NNE,21,0.0,0.0,55,0.00,CLR,,0.00,WeatherDisplay:10.37,2013-05-07 08:51:00,
2013-05-07 04:56:00,57.7,41.7,29.96,WSW,249,5.8,5.8,55,0.00,CLR,,0.00,WeatherDisplay:10.37,2013-05-07 08:56:00,
2013-05-07 05:01:00,57.7,41.7,29.96,NNE,18,2.3,0.0,55,0.00,CLR,,0.00,WeatherDisplay:10.37,2013-05-07 09:01:00,
2013-05-07 05:06:00,57.6,41.5,29.96,NE,35,3.5,3.5,55,0.00,CLR,,0.00,WeatherDisplay:10.37,2013-05-07 09:06:00,
2013-05-07 05:11:00,57.6,41.5,29.96,NE,34,4.0,0.0,55,0.00,CLR,,0.00,WeatherDisplay:10.37,2013-05-07 09:11:00,
2013-05-07 05:16:00,57.6,41.5,29.96,SSE,147,3.5,0.0,55,0.00,CLR,,0.00,WeatherDisplay:10.37,2013-05-07 09:16:00,
2013-05-07 05:21:00,57.4,41.3,29.96,NW,305,0.0,0.0,55,0.00,CLR,,0.00,WeatherDisplay:10.37,2013-05-07 09:21:00,
2013-05-07 05:26:00,57.2,41.2,29.96,West,269,2.3,0.0,55,0.00,CLR,,0.00,WeatherDisplay:10.37,2013-05-07 09:26:00,
2013-05-07 05:31:00,57.2,41.2,29.96,NE,53,4.6,0.0,55,0.00,CLR,,0.00,WeatherDisplay:10.37,2013-05-07 09:31:00,
2013-05-07 05:36:00,57.2,41.2,29.96,WSW,239,2.3,0.0,55,0.00,CLR,,0.00,WeatherDisplay:10.37,2013-05-07 09:36:00,
2013-05-07 05:41:00,57.2,41.6,29.96,NNE,32,6.7,0.0,56,0.00,CLR,,0.00,WeatherDisplay:10.37,2013-05-07 09:41:00,
2013-05-07 05:46:00,57.2,41.6,29.96,NW,326,3.5,3.5,56,0.00,CLR,,0.00,WeatherDisplay:10.37,2013-05-07 09:46:00,
2013-05-07 05:51:00,57.4,41.3,29.96,NNE,13,3.5,0.0,55,0.00,CLR,,0.00,WeatherDisplay:10.37,2013-05-07 09:51:00,
2013-05-07 05:56:00,57.4,41.3,29.96,NE,39,2.3,0.0,55,0.00,CLR,,0.00,WeatherDisplay:10.37,2013-05-07 09:56:00,
2013-05-07 06:01:00,57.6,41.5,29.96,South,169,0.0,0.0,55,0.00,CLR,,0.00,WeatherDisplay:10.37,2013-05-07 10:01:00,
2013-05-07 06:06:00,57.6,41.5,29.96,NE,47,3.5,0.0,55,0.00,CLR,,0.00,WeatherDisplay:10.37,2013-05-07 10:06:00,
2013-05-07 06:11:00,57.6,41.5,29.96,NE,54,3.5,0.0,55,0.00,CLR,,0.00,WeatherDisplay:10.37,2013-05-07 10:11:00,
2013-05-07 06:16:00,57.4,41.8,29.96,NNE,27,2.3,0.0,56,0.00,CLR,,0.00,WeatherDisplay:10.37,2013-05-07 10:16:00,
2013-05-07 06:21:00,57.4,41.8,29.99,East,97,3.5,0.0,56,0.00,CLR,,0.00,WeatherDisplay:10.37,2013-05-07 10:21:00,
2013-05-07 06:26:00,57.6,41.5,29.99,NW,311,2.3,0.0,55,0.00,CLR,,0.00,WeatherDisplay:10.37,2013-05-07 10:26:00,
2013-05-07 06:31:00,57.6,41.5,29.99,West,277,0.0,0.0,55,0.00,CLR,,0.00,WeatherDisplay:10.37,2013-05-07 10:31:00,
2013-05-07 06:36:00,57.6,41.5,29.96,WSW,244,0.0,0.0,55,0.00,CLR,,0.00,WeatherDisplay:10.37,2013-05-07 10:36:00,
2013-05-07 06:41:00,57.6,41.5,29.96,North,353,2.3,0.0,55,0.00,CLR,,0.00,WeatherDisplay:10.37,2013-05-07 10:41:00,
2013-05-07 06:46:00,57.9,41.8,29.96,WSW,254,0.0,0.0,55,0.00,CLR,,0.00,WeatherDisplay:10.37,2013-05-07 10:46:00,
2013-05-07 06:51:00,57.9,41.8,29.96,NW,308,3.5,0.0,55,0.00,CLR,,0.00,WeatherDisplay:10.37,2013-05-07 10:51:00,
2013-05-07 06:56:00,57.9,41.8,29.99,NE,52,0.0,0.0,55,0.00,CLR,,0.00,WeatherDisplay:10.37,2013-05-07 10:56:00,
2013-05-07 07:01:00,57.9,41.8,29.99,NNW,340,2.3,0.0,55,0.00,CLR,,0.00,WeatherDisplay:10.37,2013-05-07 11:01:00,
2013-05-07 07:06:00,58.1,42.0,29.99,East,87,3.5,3.5,55,0.00,CLR,,0.00,WeatherDisplay:10.37,2013-05-07 11:06:00,
2013-05-07 07:11:00,58.3,41.7,29.99,ENE,76,0.0,0.0,54,0.00,CLR,,0.00,WeatherDisplay:10.37,2013-05-07 11:11:00,
2013-05-07 07:16:00,58.5,41.9,29.99,ESE,111,0.0,0.0,54,0.00,CLR,,0.00,WeatherDisplay:10.37,2013-05-07 11:16:00,
2013-05-07 07:21:00,58.6,42.0,29.99,North,0,4.6,0.0,54,0.00,CLR,,0.00,WeatherDisplay:10.37,2013-05-07 11:21:00,
2013-05-07 07:26:00,58.6,41.5,29.99,NNW,335,0.0,0.0,53,0.00,CLR,,0.00,WeatherDisplay:10.37,2013-05-07 11:26:00,
2013-05-07 07:31:00,58.6,41.5,29.99,NNW,337,0.0,0.0,53,0.00,CLR,,0.00,WeatherDisplay:10.37,2013-05-07 11:31:00,
2013-05-07 07:36:00,58.8,41.2,29.99,NE,45,2.7,0.0,52,0.00,CLR,,0.00,WeatherDisplay:10.37,2013-05-07 11:36:00,
2013-05-07 07:41:00,58.8,41.7,29.99,NNW,331,2.3,0.0,53,0.00,CLR,,0.00,WeatherDisplay:10.37,2013-05-07 11:41:00,
2013-05-07 07:46:00,58.8,41.7,29.99,ENE,61,3.5,3.5,53,0.00,CLR,,0.00,WeatherDisplay:10.37,2013-05-07 11:46:00,
2013-05-07 07:51:00,59.4,41.7,29.99,NW,309,0.0,0.0,52,0.00,CLR,,0.00,WeatherDisplay:10.37,2013-05-07 11:51:00,
2013-05-07 07:56:00,59.9,41.7,29.99,ENE,58,3.5,0.0,51,0.00,CLR,,0.00,WeatherDisplay:10.37,2013-05-07 11:56:00,
2013-05-07 08:01:00,59.9,40.7,29.99,SSW,198,3.5,0.0,49,0.00,CLR,,0.00,WeatherDisplay:10.37,2013-05-07 12:01:00,
2013-05-07 08:06:00,60.1,40.8,29.99,ENE,58,2.3,0.0,49,0.00,CLR,,0.00,WeatherDisplay:10.37,2013-05-07 12:06:00,
2013-05-07 08:11:00,60.1,40.8,29.99,NNE,31,2.3,2.3,49,0.00,CLR,,0.00,WeatherDisplay:10.37,2013-05-07 12:11:00,
2013-05-07 08:16:00,59.9,40.7,29.99,East,80,0.0,0.0,49,0.00,CLR,,0.00,WeatherDisplay:10.37,2013-05-07 12:16:00,
2013-05-07 08:21:00,59.0,41.4,29.99,ENE,62,3.5,0.0,52,0.00,CLR,,0.00,WeatherDisplay:10.37,2013-05-07 12:21:00,
2013-05-07 08:26:00,58.8,42.7,29.99,East,101,2.3,0.0,55,0.00,CLR,,0.00,WeatherDisplay:10.37,2013-05-07 12:26:00,
2013-05-07 08:31:00,58.3,42.6,29.99,SSE,158,0.0,0.0,56,0.00,CLR,,0.00,WeatherDisplay:10.37,2013-05-07 12:31:00,
2013-05-07 08:36:00,57.9,43.2,29.99,ENE,65,0.0,0.0,58,0.00,CLR,,0.00,WeatherDisplay:10.37,2013-05-07 12:36:00,
2013-05-07 08:41:00,58.5,43.7,29.99,South,178,0.0,0.0,58,0.00,CLR,,0.00,WeatherDisplay:10.37,2013-05-07 12:41:00,
2013-05-07 08:46:00,59.4,43.7,29.99,SE,129,3.5,0.0,56,0.00,CLR,,0.00,WeatherDisplay:10.37,2013-05-07 12:46:00,
2013-05-07 08:51:00,61.3,44.5,29.99,SE,133,4.9,4.9,54,0.00,CLR,,0.00,WeatherDisplay:10.37,2013-05-07 12:51:00,
2013-05-07 08:56:00,63.1,43.1,29.99,SE,133,3.5,3.5,48,0.00,CLR,,0.00,WeatherDisplay:10.37,2013-05-07 12:56:00,
2013-05-07 09:01:00,64.0,42.8,29.99,ESE,109,3.5,0.0,46,0.00,CLR,,0.00,WeatherDisplay:10.37,2013-05-07 13:01:00,
2013-05-07 09:06:00,63.0,41.3,29.99,North,2,5.8,5.8,45,0.00,CLR,,0.00,WeatherDisplay:10.37,2013-05-07 13:06:00,
2013-05-07 09:11:00,62.2,40.6,29.99,SW,214,2.3,0.0,45,0.00,CLR,,0.00,WeatherDisplay:10.37,2013-05-07 13:11:00,
2013-05-07 09:16:00,63.1,40.9,29.99,ESE,106,5.8,5.8,44,0.00,CLR,,0.00,WeatherDisplay:10.37,2013-05-07 13:16:00,
2013-05-07 09:21:00,63.5,41.2,29.99,SSW,207,2.7,0.0,44,0.00,CLR,,0.00,WeatherDisplay:10.37,2013-05-07 13:21:00,
2013-05-07 09:26:00,63.5,41.2,29.99,WSW,238,2.7,2.7,44,0.00,CLR,,0.00,WeatherDisplay:10.37,2013-05-07 13:26:00,
2013-05-07 09:31:00,63.0,40.7,29.99,NNE,32,3.5,0.0,44,0.00,CLR,,0.00,WeatherDisplay:10.37,2013-05-07 13:31:00,
2013-05-07 09:36:00,62.8,39.9,29.99,SE,130,5.8,0.0,43,0.00,CLR,,0.00,WeatherDisplay:10.37,2013-05-07 13:36:00,
2013-05-07 09:41:00,62.8,40.5,29.99,ESE,108,0.0,0.0,44,0.00,CLR,,0.00,WeatherDisplay:10.37,2013-05-07 13:41:00,
2013-05-07 09:46:00,62.8,40.5,29.99,SE,124,4.6,4.6,44,0.00,CLR,,0.00,WeatherDisplay:10.37,2013-05-07 13:46:00,
2013-05-07 09:51:00,62.6,40.4,29.99,NNW,341,2.3,0.0,44,0.00,CLR,,0.00,WeatherDisplay:10.37,2013-05-07 13:51:00,
2013-05-07 09:56:00,62.2,40.0,29.99,NNE,22,3.5,3.5,44,0.00,CLR,,0.00,WeatherDisplay:10.37,2013-05-07 13:56:00,
2013-05-07 10:01:00,62.2,40.0,29.99,NNE,21,8.1,8.1,44,0.00,CLR,,0.00,WeatherDisplay:10.37,2013-05-07 14:01:00,
2013-05-07 10:06:00,62.4,40.2,29.99,NE,37,6.3,6.3,44,0.00,CLR,,0.00,WeatherDisplay:10.37,2013-05-07 14:06:00,
2013-05-07 10:11:00,62.6,40.4,29.99,NNW,339,4.0,0.0,44,0.00,CLR,,0.00,WeatherDisplay:10.37,2013-05-07 14:11:00,
2013-05-07 10:16:00,63.9,41.5,29.99,SSE,159,4.6,4.6,44,0.00,CLR,,0.00,WeatherDisplay:10.37,2013-05-07 14:16:00,
2013-05-07 10:21:00,64.2,41.2,29.99,ENE,75,3.5,3.5,43,0.00,CLR,,0.00,WeatherDisplay:10.37,2013-05-07 14:21:00,
2013-05-07 10:26:00,64.4,39.5,29.99,SE,130,3.5,0.0,40,0.00,CLR,,0.00,WeatherDisplay:10.37,2013-05-07 14:26:00,
2013-05-07 10:31:00,64.2,40.0,29.99,NE,43,8.1,8.1,41,0.00,CLR,,0.00,WeatherDisplay:10.37,2013-05-07 14:31:00,
2013-05-07 10:36:00,64.0,39.8,29.99,SE,143,3.5,3.5,41,0.00,CLR,,0.00,WeatherDisplay:10.37,2013-05-07 14:36:00,
2013-05-07 10:41:00,64.4,39.5,29.99,WSW,258,3.5,0.0,40,0.00,CLR,,0.00,WeatherDisplay:10.37,2013-05-07 14:41:00,
2013-05-07 10:46:00,64.9,38.7,29.99,ESE,118,3.5,3.5,38,0.00,CLR,,0.00,WeatherDisplay:10.37,2013-05-07 14:46:00,
2013-05-07 10:51:00,64.8,38.5,29.99,SE,139,3.5,0.0,38,0.00,CLR,,0.00,WeatherDisplay:10.37,2013-05-07 14:51:00,
2013-05-07 10:56:00,64.0,37.9,29.99,SSW,198,3.5,3.5,38,0.00,CLR,,0.00,WeatherDisplay:10.37,2013-05-07 14:56:00,
2013-05-07 11:01:00,64.0,37.9,29.99,SSW,194,3.5,0.0,38,0.00,CLR,,0.00,WeatherDisplay:10.37,2013-05-07 15:01:00,
2013-05-07 11:07:00,64.2,38.1,29.99,NNE,15,4.6,4.6,38,0.00,CLR,,0.00,WeatherDisplay:10.37,2013-05-07 15:07:00,
2013-05-07 11:12:00,64.4,38.2,29.99,ENE,61,3.5,3.5,38,0.00,CLR,,0.00,WeatherDisplay:10.37,2013-05-07 15:12:00,
2013-05-07 11:17:00,64.2,38.1,29.99,SSE,168,3.5,0.0,38,0.00,CLR,,0.00,WeatherDisplay:10.37,2013-05-07 15:17:00,
2013-05-07 11:22:00,64.4,38.2,29.99,ENE,70,0.0,0.0,38,0.00,CLR,,0.00,WeatherDisplay:10.37,2013-05-07 15:22:00,
2013-05-07 11:27:00,64.4,38.2,29.99,SE,139,3.5,3.5,38,0.00,CLR,,0.00,WeatherDisplay:10.37,2013-05-07 15:27:00,
2013-05-07 11:32:00,63.9,37.7,29.99,SE,124,2.3,0.0,38,0.00,CLR,,0.00,WeatherDisplay:10.37,2013-05-07 15:32:00,
2013-05-07 11:37:00,63.5,39.4,30.02,SE,124,5.8,5.8,41,0.00,CLR,,0.00,WeatherDisplay:10.37,2013-05-07 15:37:00,
2013-05-07 11:42:00,63.3,39.2,30.02,ESE,110,3.5,0.0,41,0.00,CLR,,0.00,WeatherDisplay:10.37,2013-05-07 15:42:00,
2013-05-07 11:47:00,63.0,38.9,30.02,East,95,2.3,0.0,41,0.00,CLR,,0.00,WeatherDisplay:10.37,2013-05-07 15:47:00,
2013-05-07 11:52:00,63.5,40.6,30.02,ENE,67,2.3,0.0,43,0.00,CLR,,0.00,WeatherDisplay:10.37,2013-05-07 15:52:00,
2013-05-07 11:57:00,63.0,40.1,30.02,ESE,115,5.8,5.8,43,0.00,CLR,,0.00,WeatherDisplay:10.37,2013-05-07 15:57:00,
2013-05-07 12:02:00,62.8,39.9,30.02,NE,45,3.5,3.5,43,0.00,CLR,,0.00,WeatherDisplay:10.37,2013-05-07 16:02:00,
2013-05-07 12:07:00,63.9,40.9,30.02,SE,140,2.3,0.0,43,0.00,CLR,,0.00,WeatherDisplay:10.37,2013-05-07 16:07:00,
2013-05-07 12:12:00,64.9,40.0,30.02,NNW,338,5.8,5.8,40,0.00,CLR,,0.00,WeatherDisplay:10.37,2013-05-07 16:12:00,
2013-05-07 12:17:00,65.7,39.3,30.02,WNW,296,3.5,3.5,38,0.00,CLR,,0.00,WeatherDisplay:10.37,2013-05-07 16:17:00,
2013-05-07 12:22:00,66.0,39.7,30.02,East,84,4.6,4.6,38,0.00,CLR,,0.00,WeatherDisplay:10.37,2013-05-07 16:22:00,
2013-05-07 12:27:00,66.2,37.7,30.02,East,85,3.5,3.6,35,0.00,CLR,,0.00,WeatherDisplay:10.37,2013-05-07 16:27:00,
2013-05-07 12:32:00,66.7,38.2,30.02,NNW,332,3.5,0.0,35,0.00,CLR,,0.00,WeatherDisplay:10.37,2013-05-07 16:32:00,
2013-05-07 12:37:00,66.9,38.4,30.02,ESE,114,3.5,0.0,35,0.00,CLR,,0.00,WeatherDisplay:10.37,2013-05-07 16:37:00,
2013-05-07 12:42:00,66.6,38.0,30.02,NNE,29,4.6,4.6,35,0.00,CLR,,0.00,WeatherDisplay:10.37,2013-05-07 16:42:00,
2013-05-07 12:47:00,67.1,36.2,30.02,SE,130,3.5,0.0,32,0.00,CLR,,0.00,WeatherDisplay:10.37,2013-05-07 16:47:00,
2013-05-07 12:52:00,68.4,37.3,29.99,WSW,249,5.8,5.8,32,0.00,CLR,,0.00,WeatherDisplay:10.37,2013-05-07 16:52:00,
2013-05-07 12:57:00,68.7,37.7,29.99,NNW,327,4.6,4.6,32,0.00,CLR,,0.00,WeatherDisplay:10.37,2013-05-07 16:57:00,
2013-05-07 13:02:00,68.0,37.0,29.99,NW,314,6.9,6.9,32,0.00,CLR,,0.00,WeatherDisplay:10.37,2013-05-07 17:02:00,
2013-05-07 13:07:00,66.9,36.1,29.99,East,90,3.5,3.5,32,0.00,CLR,,0.00,WeatherDisplay:10.37,2013-05-07 17:07:00,
2013-05-07 13:12:00,66.6,35.8,29.99,West,275,3.5,0.0,32,0.00,CLR,,0.00,WeatherDisplay:10.37,2013-05-07 17:12:00,
2013-05-07 13:17:00,66.6,35.8,29.99,NE,51,4.0,4.0,32,0.00,CLR,,0.00,WeatherDisplay:10.37,2013-05-07 17:17:00,
2013-05-07 13:22:00,67.5,36.6,29.99,SSE,150,3.5,0.0,32,0.00,CLR,,0.00,WeatherDisplay:10.37,2013-05-07 17:22:00,
2013-05-07 13:27:00,68.5,37.5,29.99,NW,315,5.8,5.8,32,0.00,CLR,,0.00,WeatherDisplay:10.37,2013-05-07 17:27:00,
2013-05-07 13:32:00,69.8,38.6,29.99,NE,56,4.6,4.6,32,0.00,CLR,,0.00,WeatherDisplay:10.37,2013-05-07 17:32:00,
2013-05-07 13:37:00,68.9,37.8,29.99,SE,145,5.8,5.8,32,0.00,CLR,,0.00,WeatherDisplay:10.37,2013-05-07 17:37:00,
2013-05-07 13:42:00,68.7,37.7,29.99,SE,145,5.8,5.8,32,0.00,CLR,,0.00,WeatherDisplay:10.37,2013-05-07 17:42:00,
2013-05-07 13:47:00,68.2,37.2,29.99,NE,51,5.8,5.8,32,0.00,CLR,,0.00,WeatherDisplay:10.37,2013-05-07 17:47:00,
2013-05-07 13:52:00,67.6,36.7,29.99,SE,130,3.5,0.0,32,0.00,CLR,,0.00,WeatherDisplay:10.37,2013-05-07 17:52:00,
2013-05-07 13:57:00,67.6,36.7,29.99,NNW,344,4.6,4.6,32,0.00,CLR,,0.00,WeatherDisplay:10.37,2013-05-07 17:57:00,
2013-05-07 14:02:00,66.7,35.9,29.99,ESE,115,8.1,8.1,32,0.00,CLR,,0.00,WeatherDisplay:10.37,2013-05-07 18:02:00,
2013-05-07 14:07:00,66.7,35.9,29.99,East,87,4.6,4.6,32,0.00,CLR,,0.00,WeatherDisplay:10.37,2013-05-07 18:07:00,
2013-05-07 14:12:00,66.7,35.9,29.99,SW,221,3.5,3.5,32,0.00,CLR,,0.00,WeatherDisplay:10.37,2013-05-07 18:12:00,
2013-05-07 14:17:00,66.4,35.6,29.99,ENE,69,5.8,5.8,32,0.00,CLR,,0.00,WeatherDisplay:10.37,2013-05-07 18:17:00,
2013-05-07 14:22:00,67.5,36.6,29.99,West,265,3.5,3.5,32,0.00,CLR,,0.00,WeatherDisplay:10.37,2013-05-07 18:22:00,
2013-05-07 14:27:00,68.7,37.7,29.99,SE,131,3.5,3.5,32,0.00,CLR,,0.00,WeatherDisplay:10.37,2013-05-07 18:27:00,
2013-05-07 14:32:00,68.7,37.7,29.99,ESE,104,5.8,5.8,32,0.00,CLR,,0.00,WeatherDisplay:10.37,2013-05-07 18:32:00,
2013-05-07 14:37:00,69.6,38.4,29.99,SE,131,5.8,5.8,32,0.00,CLR,,0.00,WeatherDisplay:10.37,2013-05-07 18:37:00,
2013-05-07 14:42:00,71.1,39.7,29.99,SSE,150,4.6,4.6,32,0.00,CLR,,0.00,WeatherDisplay:10.37,2013-05-07 18:42:00,
2013-05-07 14:47:00,70.5,39.2,29.99,SSE,163,3.5,3.5,32,0.00,CLR,,0.00,WeatherDisplay:10.37,2013-05-07 18:47:00,
2013-05-07 14:52:00,70.5,39.2,29.96,SSE,150,3.5,3.5,32,0.00,CLR,,0.00,WeatherDisplay:10.37,2013-05-07 18:52:00,
2013-05-07 14:57:00,71.4,40.0,29.96,ESE,122,4.0,4.0,32,0.00,CLR,,0.00,WeatherDisplay:10.37,2013-05-07 18:57:00,
2013-05-07 15:02:00,70.5,39.2,29.96,SE,131,4.6,4.6,32,0.00,CLR,,0.00,WeatherDisplay:10.37,2013-05-07 19:02:00,
2013-05-07 15:07:00,69.8,38.6,29.96,NNE,33,6.9,0.0,32,0.00,CLR,,0.00,WeatherDisplay:10.37,2013-05-07 19:07:00,
2013-05-07 15:12:00,67.8,36.9,29.96,NE,45,4.6,4.6,32,0.00,CLR,,0.00,WeatherDisplay:10.37,2013-05-07 19:12:00,
2013-05-07 15:17:00,65.1,36.8,29.96,ESE,111,4.6,4.6,35,0.00,CLR,,0.00,WeatherDisplay:10.37,2013-05-07 19:17:00,
2013-05-07 15:22:00,64.2,41.2,29.96,ESE,111,3.5,0.0,43,0.00,CLR,,0.00,WeatherDisplay:10.37,2013-05-07 19:22:00,
2013-05-07 15:27:00,63.0,41.8,29.96,SE,125,2.3,0.0,46,0.00,CLR,,0.00,WeatherDisplay:10.37,2013-05-07 19:27:00,
2013-05-07 15:32:00,61.3,44.1,29.96,ESE,115,0.0,0.0,53,0.00,CLR,,0.00,WeatherDisplay:10.37,2013-05-07 19:32:00,
2013-05-07 15:37:00,61.3,45.0,29.99,WNW,292,0.0,0.0,55,0.00,CLR,,0.00,WeatherDisplay:10.37,2013-05-07 19:37:00,
2013-05-07 15:42:00,61.5,46.6,29.99,East,97,3.5,0.0,58,0.00,CLR,,0.00,WeatherDisplay:10.37,2013-05-07 19:42:00,
2013-05-07 15:47:00,61.3,46.4,29.99,ESE,114,0.0,0.0,58,0.00,CLR,,0.00,WeatherDisplay:10.37,2013-05-07 19:47:00,
2013-05-07 15:52:00,61.3,46.9,29.99,East,92,2.3,2.3,59,0.00,CLR,,0.00,WeatherDisplay:10.37,2013-05-07 19:52:00,
2013-05-07 15:57:00,61.3,47.3,29.99,NE,44,0.0,0.0,60,0.00,CLR,,0.00,WeatherDisplay:10.37,2013-05-07 19:57:00,
2013-05-07 16:02:00,61.2,47.2,29.99,ENE,76,2.3,0.0,60,0.00,CLR,,0.00,WeatherDisplay:10.37,2013-05-07 20:02:00,
2013-05-07 16:07:00,61.0,47.4,29.99,West,271,0.0,0.0,61,0.00,CLR,,0.00,WeatherDisplay:10.37,2013-05-07 20:07:00,
2013-05-07 16:12:00,60.6,47.5,29.99,SE,126,3.5,0.0,62,0.00,CLR,,0.00,WeatherDisplay:10.37,2013-05-07 20:12:00,
2013-05-07 16:17:00,60.4,47.8,29.99,ESE,117,0.0,0.0,63,0.00,CLR,,0.00,WeatherDisplay:10.37,2013-05-07 20:17:00,
2013-05-07 16:22:00,60.8,48.1,29.96,ESE,118,0.0,0.0,63,0.00,CLR,,0.00,WeatherDisplay:10.37,2013-05-07 20:22:00,
2013-05-07 16:27:00,61.0,48.3,29.96,East,100,0.0,0.0,63,0.00,CLR,,0.00,WeatherDisplay:10.37,2013-05-07 20:27:00,
2013-05-07 16:32:00,61.2,48.5,29.96,NNW,348,0.0,0.0,63,0.00,CLR,,0.00,WeatherDisplay:10.37,2013-05-07 20:32:00,
2013-05-07 16:37:00,61.3,49.1,29.96,NNE,16,0.0,0.0,64,0.00,CLR,,0.00,WeatherDisplay:10.37,2013-05-07 20:37:00,
2013-05-07 16:42:00,60.6,47.1,29.96,NE,43,0.0,0.0,61,0.00,CLR,,0.00,WeatherDisplay:10.37,2013-05-07 20:42:00,
2013-05-07 16:47:00,60.4,47.8,29.96,NNW,348,2.3,0.0,63,0.00,CLR,,0.00,WeatherDisplay:10.37,2013-05-07 20:47:00,
2013-05-07 16:52:00,60.3,48.0,29.96,South,174,2.3,0.0,64,0.00,CLR,,0.00,WeatherDisplay:10.37,2013-05-07 20:52:00,
2013-05-07 16:57:00,60.1,48.7,29.96,South,174,0.0,0.0,66,0.00,CLR,,0.00,WeatherDisplay:10.37,2013-05-07 20:57:00,
2013-05-07 17:02:00,60.3,49.3,29.96,WNW,297,0.0,0.0,67,0.00,CLR,,0.00,WeatherDisplay:10.37,2013-05-07 21:02:00,
2013-05-07 17:07:00,60.3,48.9,29.96,NE,44,0.0,0.0,66,0.00,CLR,,0.00,WeatherDisplay:10.37,2013-05-07 21:07:00,
2013-05-07 17:12:00,60.4,49.4,29.96,NNW,331,0.0,0.0,67,0.00,CLR,,0.00,WeatherDisplay:10.37,2013-05-07 21:12:00,
2013-05-07 17:17:00,60.4,49.4,29.96,South,187,0.0,0.0,67,0.00,CLR,,0.00,WeatherDisplay:10.37,2013-05-07 21:17:00,
2013-05-07 17:22:00,60.6,49.6,29.96,ENE,74,0.0,0.0,67,0.00,CLR,,0.00,WeatherDisplay:10.37,2013-05-07 21:22:00,
2013-05-07 17:27:00,60.4,49.0,29.96,WNW,294,0.0,0.0,66,0.00,CLR,,0.00,WeatherDisplay:10.37,2013-05-07 21:27:00,
2013-05-07 17:32:00,60.6,49.6,29.96,NW,312,0.0,0.0,67,0.00,CLR,,0.00,WeatherDisplay:10.37,2013-05-07 21:32:00,
2013-05-07 17:37:00,60.8,49.4,29.96,NNW,331,0.0,0.0,66,0.00,CLR,,0.00,WeatherDisplay:10.37,2013-05-07 21:37:00,
2013-05-07 17:42:00,61.2,50.1,29.96,NNW,341,0.0,0.0,67,0.00,CLR,,0.00,WeatherDisplay:10.37,2013-05-07 21:42:00,
2013-05-07 17:47:00,61.3,49.5,29.96,NNW,331,0.0,0.0,65,0.00,CLR,,0.00,WeatherDisplay:10.37,2013-05-07 21:47:00,
2013-05-07 17:52:00,61.2,48.9,29.96,ESE,109,3.5,3.5,64,0.00,CLR,,0.00,WeatherDisplay:10.37,2013-05-07 21:52:00,
2013-05-07 17:57:00,61.2,48.9,29.96,NNW,342,0.0,0.0,64,0.00,CLR,,0.00,WeatherDisplay:10.37,2013-05-07 21:57:00,
2013-05-07 18:02:00,61.3,49.5,29.96,West,280,0.0,0.0,65,0.00,CLR,,0.00,WeatherDisplay:10.37,2013-05-07 22:02:00,
2013-05-07 18:07:00,60.6,47.1,29.96,South,176,3.5,0.0,61,0.00,CLR,,0.00,WeatherDisplay:10.37,2013-05-07 22:07:00,
2013-05-07 18:12:00,61.0,47.4,29.96,WSW,242,3.5,0.0,61,0.00,CLR,,0.00,WeatherDisplay:10.37,2013-05-07 22:12:00,
2013-05-07 18:17:00,61.3,47.8,29.96,North,357,0.0,0.0,61,0.00,CLR,,0.00,WeatherDisplay:10.37,2013-05-07 22:17:00,
2013-05-07 18:22:00,61.3,47.8,29.96,NE,47,0.0,0.0,61,0.00,CLR,,0.00,WeatherDisplay:10.37,2013-05-07 22:22:00,
2013-05-07 18:27:00,61.3,46.9,29.96,NW,309,0.0,0.0,59,0.00,CLR,,0.00,WeatherDisplay:10.37,2013-05-07 22:27:00,
2013-05-07 18:32:00,61.3,46.9,29.96,NNW,333,0.0,0.0,59,0.00,CLR,,0.00,WeatherDisplay:10.37,2013-05-07 22:32:00,
2013-05-07 18:37:00,61.2,46.3,29.96,North,11,2.3,0.0,58,0.00,CLR,,0.00,WeatherDisplay:10.37,2013-05-07 22:37:00,
2013-05-07 18:42:00,61.2,45.8,29.96,NW,307,3.1,0.0,57,0.00,CLR,,0.00,WeatherDisplay:10.37,2013-05-07 22:42:00,
2013-05-07 18:47:00,61.2,45.3,29.96,NNE,25,5.4,5.4,56,0.00,CLR,,0.00,WeatherDisplay:10.37,2013-05-07 22:47:00,
2013-05-07 18:52:00,61.2,45.3,29.96,NE,43,3.5,0.0,56,0.00,CLR,,0.00,WeatherDisplay:10.37,2013-05-07 22:52:00,
2013-05-07 18:57:00,61.0,45.2,29.96,NNW,343,0.0,0.0,56,0.00,CLR,,0.00,WeatherDisplay:10.37,2013-05-07 22:57:00,
2013-05-07 19:02:00,61.0,44.7,29.96,NNW,343,0.0,0.0,55,0.00,CLR,,0.00,WeatherDisplay:10.37,2013-05-07 23:02:00,
2013-05-07 19:07:00,61.3,45.0,29.96,NE,37,0.0,0.0,55,0.00,CLR,,0.00,WeatherDisplay:10.37,2013-05-07 23:07:00,
2013-05-07 19:12:00,61.3,45.0,29.96,NNW,334,0.0,0.0,55,0.00,CLR,,0.00,WeatherDisplay:10.37,2013-05-07 23:12:00,
2013-05-07 19:17:00,61.5,44.7,29.96,North,0,0.0,0.0,54,0.00,CLR,,0.00,WeatherDisplay:10.37,2013-05-07 23:17:00,
2013-05-07 19:22:00,61.3,44.5,29.96,North,357,0.0,0.0,54,0.00,CLR,,0.00,WeatherDisplay:10.37,2013-05-07 23:22:00,
2013-05-07 19:27:00,61.7,44.9,29.96,North,7,0.0,0.0,54,0.00,CLR,,0.00,WeatherDisplay:10.37,2013-05-07 23:27:00,
2013-05-07 19:32:00,61.7,44.9,29.96,East,81,0.0,0.0,54,0.00,CLR,,0.00,WeatherDisplay:10.37,2013-05-07 23:32:00,
2013-05-07 19:37:00,61.5,44.7,29.96,SE,142,2.3,0.0,54,0.00,CLR,,0.00,WeatherDisplay:10.37,2013-05-07 23:37:00,
2013-05-07 19:42:00,61.3,43.6,29.96,East,94,0.0,0.0,52,0.00,CLR,,0.00,WeatherDisplay:10.37,2013-05-07 23:42:00,
2013-05-07 19:47:00,61.3,44.1,29.96,North,7,0.0,0.0,53,0.00,CLR,,0.00,WeatherDisplay:10.37,2013-05-07 23:47:00,
2013-05-07 19:52:00,61.3,44.5,29.96,NNW,328,0.0,0.0,54,0.00,CLR,,0.00,WeatherDisplay:10.37,2013-05-07 23:52:00,
2013-05-07 19:57:00,61.3,44.5,29.96,NNW,330,0.0,0.0,54,0.00,CLR,,0.00,WeatherDisplay:10.37,2013-05-07 23:57:00,
2013-05-07 20:02:00,61.5,43.2,29.96,ENE,75,3.5,0.0,51,0.00,CLR,,0.00,WeatherDisplay:10.37,2013-05-08 00:02:00,
2013-05-07 20:07:00,61.7,42.3,29.96,North,4,3.5,0.0,49,0.00,CLR,,0.00,WeatherDisplay:10.37,2013-05-08 00:07:00,
2013-05-07 20:12:00,62.1,42.1,29.96,North,0,3.5,0.0,48,0.00,CLR,,0.00,WeatherDisplay:10.37,2013-05-08 00:12:00,
2013-05-07 20:17:00,61.9,41.4,29.96,NW,305,2.3,0.0,47,0.00,CLR,,0.00,WeatherDisplay:10.37,2013-05-08 00:17:00,
2013-05-07 20:22:00,61.7,40.7,29.96,SSW,210,9.2,9.2,46,0.00,CLR,,0.00,WeatherDisplay:10.37,2013-05-08 00:22:00,
2013-05-07 20:27:00,61.3,40.4,29.96,NE,50,3.5,3.5,46,0.00,CLR,,0.00,WeatherDisplay:10.37,2013-05-08 00:27:00,
2013-05-07 20:32:00,61.3,39.8,29.96,WNW,295,0.0,0.0,45,0.00,CLR,,0.00,WeatherDisplay:10.37,2013-05-08 00:32:00,
2013-05-07 20:37:00,61.2,39.6,29.96,NNE,32,3.5,3.5,45,0.00,CLR,,0.00,WeatherDisplay:10.37,2013-05-08 00:37:00,
2013-05-07 20:42:00,61.3,39.8,29.96,ESE,120,3.5,0.0,45,0.00,CLR,,0.00,WeatherDisplay:10.37,2013-05-08 00:42:00,
2013-05-07 20:47:00,61.5,40.0,29.96,SW,227,2.3,0.0,45,0.00,CLR,,0.00,WeatherDisplay:10.37,2013-05-08 00:47:00,
2013-05-07 20:52:00,61.2,39.6,29.96,North,357,0.0,0.0,45,0.00,CLR,,0.00,WeatherDisplay:10.37,2013-05-08 00:52:00,
2013-05-07 20:57:00,60.8,39.3,29.96,SE,138,3.5,3.5,45,0.00,CLR,,0.00,WeatherDisplay:10.37,2013-05-08 00:57:00,
2013-05-07 21:02:00,61.0,39.5,29.96,WNW,289,2.3,0.0,45,0.00,CLR,,0.00,WeatherDisplay:10.37,2013-05-08 01:02:00,
2013-05-07 21:07:00,61.0,39.5,29.96,NE,46,2.3,0.0,45,0.00,CLR,,0.00,WeatherDisplay:10.37,2013-05-08 01:07:00,
2013-05-07 21:12:00,61.0,39.5,29.96,SE,127,3.5,3.5,45,0.00,CLR,,0.00,WeatherDisplay:10.37,2013-05-08 01:12:00,
2013-05-07 21:17:00,61.2,39.6,29.96,NNW,342,3.5,0.0,45,0.00,CLR,,0.00,WeatherDisplay:10.37,2013-05-08 01:17:00,
2013-05-07 21:22:00,61.0,40.0,29.96,West,280,2.3,0.0,46,0.00,CLR,,0.00,WeatherDisplay:10.37,2013-05-08 01:22:00,
2013-05-07 21:27:00,61.0,39.5,29.96,WSW,252,3.5,3.5,45,0.00,CLR,,0.00,WeatherDisplay:10.37,2013-05-08 01:27:00,
2013-05-07 21:32:00,61.0,39.5,29.96,NE,37,3.5,3.5,45,0.00,CLR,,0.00,WeatherDisplay:10.37,2013-05-08 01:32:00,
2013-05-07 21:37:00,61.0,39.5,29.96,North,357,0.0,0.0,45,0.00,CLR,,0.00,WeatherDisplay:10.37,2013-05-08 01:37:00,
2013-05-07 21:42:00,61.0,40.0,29.96,NW,305,2.3,0.0,46,0.00,CLR,,0.00,WeatherDisplay:10.37,2013-05-08 01:42:00,
2013-05-07 21:47:00,60.8,39.3,29.96,SE,142,3.5,0.0,45,0.00,CLR,,0.00,WeatherDisplay:10.37,2013-05-08 01:47:00,
2013-05-07 21:52:00,61.0,40.0,29.96,SW,219,0.0,0.0,46,0.00,CLR,,0.00,WeatherDisplay:10.37,2013-05-08 01:52:00,
2013-05-07 21:57:00,60.6,39.7,29.96,West,278,0.0,0.0,46,0.00,CLR,,0.00,WeatherDisplay:10.37,2013-05-08 01:57:00,
2013-05-07 22:02:00,60.6,39.7,29.96,NNW,332,3.5,0.0,46,0.00,CLR,,0.00,WeatherDisplay:10.37,2013-05-08 02:02:00,
2013-05-07 22:07:00,61.0,39.5,29.96,WSW,237,0.0,0.0,45,0.00,CLR,,0.00,WeatherDisplay:10.37,2013-05-08 02:07:00,
2013-05-07 22:12:00,61.0,39.5,29.96,NNE,26,2.3,0.0,45,0.00,CLR,,0.00,WeatherDisplay:10.37,2013-05-08 02:12:00,
2013-05-07 22:17:00,61.0,39.5,29.96,NNW,348,3.5,0.0,45,0.00,CLR,,0.00,WeatherDisplay:10.37,2013-05-08 02:17:00,
2013-05-07 22:22:00,61.2,39.6,29.96,NE,38,0.0,0.0,45,0.00,CLR,,0.00,WeatherDisplay:10.37,2013-05-08 02:22:00,
2013-05-07 22:27:00,60.4,40.1,29.96,NNW,330,3.5,0.0,47,0.00,CLR,,0.00,WeatherDisplay:10.37,2013-05-08 02:27:00,
2013-05-07 22:32:00,59.2,41.1,29.96,WNW,290,0.0,0.0,51,0.00,CLR,,0.00,WeatherDisplay:10.37,2013-05-08 02:32:00,
2013-05-07 22:37:00,58.6,42.5,29.99,WNW,294,0.0,0.0,55,0.00,CLR,,0.00,WeatherDisplay:10.37,2013-05-08 02:37:00,
2013-05-07 22:42:00,58.3,43.1,29.99,West,273,0.0,0.0,57,0.00,CLR,,0.00,WeatherDisplay:10.37,2013-05-08 02:42:00,
2013-05-07 22:47:00,58.3,45.3,29.99,West,280,0.0,0.0,62,0.00,CLR,,0.00,WeatherDisplay:10.37,2013-05-08 02:47:00,
2013-05-07 22:52:00,58.1,46.0,29.96,NNE,23,0.0,0.0,64,0.00,CLR,,0.00,WeatherDisplay:10.37,2013-05-08 02:52:00,
2013-05-07 22:57:00,57.9,47.0,29.96,ENE,76,2.3,0.0,67,0.00,CLR,,0.00,WeatherDisplay:10.37,2013-05-08 02:57:00,
2013-05-07 23:02:00,57.9,47.0,29.96,West,259,0.0,0.0,67,0.00,CLR,,0.00,WeatherDisplay:10.37,2013-05-08 03:02:00,
2013-05-07 23:07:00,57.9,48.2,29.96,SW,219,0.0,0.0,70,0.00,CLR,,0.00,WeatherDisplay:10.37,2013-05-08 03:07:00,
2013-05-07 23:12:00,57.9,48.9,29.96,NW,315,0.0,0.0,72,0.00,CLR,,0.00,WeatherDisplay:10.37,2013-05-08 03:12:00,
2013-05-07 23:17:00,57.9,49.3,29.96,North,357,0.0,0.0,73,0.00,CLR,,0.00,WeatherDisplay:10.37,2013-05-08 03:17:00,
2013-05-07 23:22:00,57.9,49.7,29.96,WNW,300,0.0,0.0,74,0.00,CLR,,0.00,WeatherDisplay:10.37,2013-05-08 03:22:00,
2013-05-07 23:27:00,57.9,50.0,29.96,WNW,300,0.0,0.0,75,0.00,CLR,,0.00,WeatherDisplay:10.37,2013-05-08 03:27:00,
2013-05-07 23:32:00,57.9,51.1,29.96,NW,316,2.3,0.0,78,0.00,CLR,,0.00,WeatherDisplay:10.37,2013-05-08 03:32:00,
2013-05-07 23:37:00,57.7,50.9,29.96,NE,54,0.0,0.0,78,0.00,CLR,,0.00,WeatherDisplay:10.37,2013-05-08 03:37:00,
2013-05-07 23:42:00,57.7,50.9,29.96,NNW,345,0.0,0.0,78,0.00,CLR,,0.00,WeatherDisplay:10.37,2013-05-08 03:42:00,
2013-05-07 23:47:00,57.7,50.2,29.96,NW,315,0.0,0.0,76,0.00,CLR,,0.00,WeatherDisplay:10.37,2013-05-08 03:47:00,
2013-05-07 23:52:00,57.7,49.9,29.96,NE,46,0.0,0.0,75,0.00,CLR,,0.00,WeatherDisplay:10.37,2013-05-08 03:52:00,
2013-05-07 23:57:00,57.7,50.9,29.96,WSW,248,0.0,0.0,78,0.00,CLR,,0.00,WeatherDisplay:10.37,2013-05-08 03:57:00,